Date String (YYYY-MM-DD hh:mm:ss) UTC,Instrument flags,Ambient pressure (hPa),Sample flow (lpm),Bypass flow (lpm),Sample temperature (°C),Ambient temperature (°C),ASC tube jacket temperature (°C),LED temperature (°C),Box temperature (°C),Sample RH (%),Span deviation,Mass concentration (μg/m³),Mass concentration (μg/m³),Mass concentration (μg/m³)
DateTimeUTC,F1_M11,P_M11,Q1_M11,Q2_M11,T1_M11,T2_M11,T3_M11,T4_M11,T5_M11,U1_M11,ZSPAN_M11,X2_M11,X0_M11,X1_M11
2022-04-14 05:00:00,,0822.4,5.00,0.00,22.4,21.4,00.0,31.3,24.1,10.3,0000.0,0003.54,0014.68,0001.46
2022-04-14 05:01:00,,0822.4,5.01,0.00,22.4,21.4,00.0,31.3,24.1,10.3,0000.0,0003.61,0015.80,0001.48
2022-04-14 05:02:00,,0822.3,5.01,0.00,22.4,21.9,00.0,31.4,24.2,10.2,0000.0,0003.68,0016.80,0001.49
2022-04-14 05:03:00,,0822.3,4.99,0.00,22.5,22.7,00.0,31.4,24.5,10.2,0000.0,0003.77,0017.72,0001.52
2022-04-14 05:04:00,,0822.3,5.00,0.00,22.7,23.0,00.0,31.4,24.6,10.2,0000.0,0003.89,0018.59,0001.54
2022-04-14 05:05:00,,0822.3,5.01,0.00,22.7,22.9,00.0,31.5,24.7,10.3,0000.0,0004.02,0020.06,0001.54
2022-04-14 05:06:00,,0822.3,4.99,0.00,22.7,22.7,00.0,31.5,24.6,10.3,0000.0,0004.08,0021.11,0001.55
2022-04-14 05:07:00,,0822.3,5.00,0.00,22.7,22.5,00.0,31.5,24.6,10.3,0000.0,0004.06,0022.99,0001.55
2022-04-14 05:08:00,,0822.3,5.00,0.00,22.7,22.4,00.0,31.5,24.6,10.4,0000.0,0004.02,0022.34,0001.55
2022-04-14 05:09:00,,0822.3,5.00,0.00,22.7,22.2,00.0,31.5,24.6,10.5,0000.0,0003.99,0022.17,0001.56
2022-04-14 05:10:00,,0822.3,5.00,0.00,22.7,22.1,00.0,31.5,24.6,10.5,0000.0,0003.99,0021.37,0001.55
2022-04-14 05:11:00,,0822.4,5.00,0.00,22.7,22.0,00.0,31.5,24.6,10.6,0000.0,0004.00,0020.53,0001.52
2022-04-14 05:12:00,,0822.3,5.00,0.00,22.7,22.0,00.0,31.5,24.5,10.5,0000.0,0003.97,0020.36,0001.51
2022-04-14 05:13:00,,0822.4,5.00,0.00,22.7,21.9,00.0,31.5,24.5,10.5,0000.0,0003.95,0019.95,0001.53
2022-04-14 05:14:00,,0822.4,5.00,0.00,22.7,21.9,00.0,31.5,24.5,10.5,0000.0,0003.93,0019.28,0001.52
2022-04-14 05:15:00,,0822.3,5.00,0.00,22.7,21.8,00.0,31.5,24.5,10.5,0000.0,0003.92,0018.97,0001.53
2022-04-14 05:16:00,,0822.3,5.00,0.00,22.6,21.8,00.0,31.5,24.4,10.6,0000.0,0003.84,0017.49,0001.54
2022-04-14 05:17:00,,0822.2,4.99,0.00,22.6,21.8,00.0,31.5,24.4,10.7,0000.0,0003.85,0016.45,0001.54
2022-04-14 05:18:00,,0822.2,5.00,0.00,22.6,21.7,00.0,31.5,24.4,10.7,0000.0,0003.86,0013.37,0001.54
2022-04-14 05:19:00,,0822.3,5.00,0.00,22.6,21.7,00.0,31.5,24.4,10.7,0000.0,0003.87,0013.61,0001.54
2022-04-14 05:20:00,,0822.3,5.00,0.00,22.6,21.7,00.0,31.5,24.4,10.6,0000.0,0003.85,0013.20,0001.54
2022-04-14 05:21:00,,0822.3,4.99,0.00,22.6,21.7,00.0,31.5,24.4,10.6,0000.0,0003.73,0013.28,0001.55
2022-04-14 05:22:00,,0822.3,5.00,0.00,22.6,21.7,00.0,31.5,24.4,10.6,0000.0,0003.64,0013.08,0001.58
2022-04-14 05:23:00,,0822.3,5.00,0.00,22.6,21.7,00.0,31.5,24.4,10.5,0000.0,0003.58,0012.86,0001.59
2022-04-14 05:24:00,,0822.4,5.00,0.00,22.6,21.7,00.0,31.5,24.4,10.4,0000.0,0003.53,0012.95,0001.59
2022-04-14 05:25:00,,0822.4,5.00,0.00,22.6,21.6,00.0,31.5,24.3,10.4,0000.0,0003.46,0012.74,0001.58
2022-04-14 05:26:00,,0822.3,5.00,0.00,22.6,21.6,00.0,31.5,24.3,10.3,0000.0,0003.35,0012.05,0001.57
2022-04-14 05:27:00,,0822.4,5.00,0.00,22.5,21.6,00.0,31.5,24.3,10.3,0000.0,0003.29,0011.95,0001.58
2022-04-14 05:28:00,,0822.4,4.99,0.00,22.5,21.6,00.0,31.5,24.3,10.3,0000.0,0003.19,0011.79,0001.58
2022-04-14 05:29:00,,0822.4,5.00,0.00,22.5,21.6,00.0,31.5,24.3,10.2,0000.0,0003.07,0011.47,0001.59
2022-04-14 05:30:00,,0822.4,5.00,0.00,22.5,21.6,00.0,31.5,24.3,10.2,0000.0,0002.90,0010.64,0001.59
2022-04-14 05:31:00,,0822.4,5.00,0.00,22.5,21.6,00.0,31.5,24.3,10.1,0000.0,0002.81,0010.43,0001.58
2022-04-14 05:32:00,,0822.3,5.00,0.00,22.5,21.6,00.0,31.5,24.3,10.0,0000.0,0002.76,0010.25,0001.58
2022-04-14 05:33:00,,0822.3,5.00,0.00,22.5,21.6,00.0,31.5,24.3,10.0,0000.0,0002.66,0009.98,0001.55
2022-04-14 05:34:00,,0822.4,5.00,0.00,22.5,21.5,00.0,31.5,24.3,10.1,0000.0,0002.57,0008.89,0001.52
2022-04-14 05:35:00,,0822.5,5.00,0.00,22.5,21.5,00.0,31.5,24.2,10.0,0000.0,0002.47,0008.01,0001.50
2022-04-14 05:36:00,,0822.5,5.01,0.00,22.5,21.5,00.0,31.4,24.2,10.1,0000.0,0002.41,0007.85,0001.50
2022-04-14 05:37:00,,0822.4,5.00,0.00,22.5,21.5,00.0,31.4,24.2,10.1,0000.0,0002.39,0007.67,0001.48
2022-04-14 05:38:00,,0822.4,5.00,0.00,22.5,21.5,00.0,31.4,24.3,10.1,0000.0,0002.40,0007.34,0001.46
2022-04-14 05:39:00,,0822.4,5.00,0.00,22.5,21.5,00.0,31.4,24.3,10.1,0000.0,0002.38,0006.89,0001.44
2022-04-14 05:40:00,,0822.4,5.00,0.00,22.4,21.5,00.0,31.4,24.3,10.0,0000.0,0002.40,0006.65,0001.43
2022-04-14 05:41:00,,0822.3,5.00,0.00,22.4,21.5,00.0,31.4,24.3,10.0,0000.0,0002.40,0007.40,0001.43
2022-04-14 05:42:00,,0822.3,5.00,0.00,22.4,21.5,00.0,31.4,24.2,10.1,0000.0,0002.37,0007.11,0001.43
2022-04-14 05:43:00,,0822.4,5.01,0.00,22.4,21.5,00.0,31.4,24.2,10.0,0000.0,0002.34,0006.10,0001.43
2022-04-14 05:44:00,,0822.5,5.00,0.00,22.4,21.5,00.0,31.4,24.2,10.0,0000.0,0002.35,0006.46,0001.43
2022-04-14 05:45:00,,0822.4,5.00,0.00,22.4,21.5,00.0,31.4,24.2,10.0,0000.0,0002.37,0006.55,0001.43
2022-04-14 05:46:00,,0822.5,5.00,0.00,22.4,21.5,00.0,31.4,24.2,10.0,0000.0,0002.35,0006.49,0001.42
2022-04-14 05:47:00,,0822.4,5.00,0.00,22.4,21.5,00.0,31.4,24.2,10.0,0000.0,0002.35,0006.37,0001.42
2022-04-14 05:48:00,,0822.4,5.00,0.00,22.4,21.5,00.0,31.4,24.2,10.0,0000.0,0002.39,0006.40,0001.43
2022-04-14 05:49:00,,0822.5,5.00,0.00,22.5,22.1,00.0,31.4,24.3,10.0,0000.0,0002.35,0006.37,0001.42
2022-04-14 05:50:00,,0822.5,4.99,0.00,22.6,22.9,00.0,31.5,24.5,09.9,0000.0,0002.30,0006.41,0001.41
2022-04-14 05:51:00,,0822.4,5.00,0.00,22.7,23.1,00.0,31.5,24.7,09.9,0000.0,0002.26,0006.36,0001.40
2022-04-14 05:52:00,,0822.4,5.01,0.00,22.7,22.9,00.0,31.5,24.7,09.9,0000.0,0002.31,0005.52,0001.39
2022-04-14 05:53:00,,0822.5,4.99,0.00,22.7,22.7,00.0,31.5,24.6,09.9,0000.0,0002.32,0005.75,0001.39
2022-04-14 05:54:00,,0822.5,5.01,0.00,22.7,22.5,00.0,31.5,24.6,10.0,0000.0,0002.39,0006.27,0001.40
2022-04-14 05:55:00,,0822.5,4.99,0.00,22.7,22.3,00.0,31.5,24.6,10.1,0000.0,0002.40,0005.79,0001.41
2022-04-14 05:56:00,,0822.5,5.00,0.00,22.7,22.2,00.0,31.5,24.5,10.2,0000.0,0002.45,0005.93,0001.42
2022-04-14 05:57:00,,0822.5,5.00,0.00,22.7,22.1,00.0,31.5,24.5,10.2,0000.0,0002.48,0006.20,0001.43
2022-04-14 05:58:00,,0822.5,5.00,0.00,22.7,22.0,00.0,31.6,24.5,10.3,0000.0,0002.57,0007.30,0001.45
2022-04-14 05:59:00,,0822.5,5.00,0.00,22.6,21.9,00.0,31.5,24.5,10.4,0000.0,0002.59,0007.76,0001.46
